www.pogodaiklimat.ru
ПОГОДА в Эдирне

Архив погоды в Эдирне (Турция)

Время
(UTC), дата
06 21.05
07 21.05
08 21.05
09 21.05
10 21.05
11 21.05
12 21.05
13 21.05
14 21.05
15 21.05
16 21.05
17 21.05
18 21.05
21 21.05
00 22.05
03 22.05
06 22.05
07 22.05
08 22.05
09 22.05
10 22.05
11 22.05
12 22.05
13 22.05
14 22.05
15 22.05
16 22.05
17 22.05
18 22.05
21 22.05
00 23.05
03 23.05
06 23.05
07 23.05
08 23.05
09 23.05
10 23.05
11 23.05
12 23.05
13 23.05
14 23.05
15 23.05
16 23.05
17 23.05
18 23.05
21 23.05
00 24.05
03 24.05
06 24.05
07 24.05
08 24.05
09 24.05
10 24.05
11 24.05
12 24.05
13 24.05
14 24.05
15 24.05
16 24.05
17 24.05
18 24.05
06 25.05
07 25.05
08 25.05
09 25.05
10 25.05
11 25.05
12 25.05
13 25.05
14 25.05
15 25.05
16 25.05
17 25.05
18 25.05
06 26.05
07 26.05
08 26.05
09 26.05
10 26.05
11 26.05
12 26.05
13 26.05
14 26.05
15 26.05
16 26.05
17 26.05
18 26.05
06 27.05
07 27.05
08 27.05
09 27.05
10 27.05
11 27.05
12 27.05
13 27.05
14 27.05
15 27.05
16 27.05
17 27.05
18 27.05
Ветер
(напр.,м/с)
Видим. Явления Облачность Т
(С)
Тd
(С)
f
(%)
Тe
(С)
Тes
(С)
Комфортность P
(гПа)
Po
(гПа)
Тmin
(С)
Tmax
(С)
R
(мм)
R24
(мм)
S
(см)
штиль 0
{2}
20 км 5/0
[Ac As]
+16.1 +7.3 56 +16 +22 1019.6 1013.6 +10.1
штиль 0 20 км 5/3 1000 м
[Cu med, cong Ac As]
+17.3 +7.6 53 +17 +26 1019.6 1013.5
штиль 0 20 км 5/3 1000 м
[Cu med, cong Ac As]
+22.2 +7.1 38 +23 +34 комфорт 1019.0 1013.0
ЮЗ 1
{2}
20 км 5/3 1050 м
[Cu med, cong Ac As]
+23.5 +9.0 40 +24 +37 комфорт 1018.3 1012.3
Ю 1 20 км 5/3 1000 м
[Cu med, cong Ac As]
+25.2 +8.9 36 +26 +39 жарко 1017.2 1011.2
Ю 2 20 км 5/3 1000 м
[Cu med, cong Ac As]
+26.3 +4.6 25 +25 +37 комфорт 1016.7 1010.7
ЮЗ 1
{5}
20 км 4/0
[Ac As]
+27.4 +7.2 28 +27 +41 жарко 1016.0 1010.0
ЮВ 1 20 км 4/0
[Ac As]
+28.6 +8.2 28 +28 +40 жарко 1015.4 1009.4
Ю 1 20 км 4/0
[Ac trans]
+28.5 +9.1 30 +28 +37 жарко 1014.4 1008.4
Ю 2
{4}
20 км ясно +27.7 +7.4 28 +27 +32 жарко 1013.5 1007.5
Ю 1 20 км ясно +27.5 +6.2 26 +27 +29 жарко 1013.0 1007.0
Ю 1 20 км ясно +26.5 +6.9 29 +26 +26 жарко 1012.6 1006.6
ЮВ 1
{4}
20 км ясно +24.7 +8.1 35 +25 +25 комфорт 1012.4 1006.4 +28.7
штиль 0
{2}
20 км ясно +19.3 +10.6 57 +20 +20 1012.2 1006.2
С 1
{2}
20 км ясно +14.8 +9.8 72 +15 +15 1011.2 1005.2
штиль 0
{2}
20 км ясно +13.8 +9.6 76 +13 +13 1010.2 1004.2
штиль 0
{2}
20 км 6/4 1050 м
[Cu med, cong Ac As]
+17.9 +11.3 65 +18 +22 1009.9 1004.0 +13.8
штиль 0 20 км 8/5 1000 м
[Cu med, cong Ac trans]
+19.8 +12.1 61 +21 +26 комфорт 1009.6 1003.7
штиль 0 20 км 8/5 1000 м
[Cu med, cong Ac trans]
+23.8 +14.3 55 +26 +33 жарко 1009.5 1003.6
ЮЗ 1
{3}
20 км 6/4 1050 м
[Cu med, cong Ac trans]
+25.9 +14.4 49 +28 +38 жарко 1009.2 1003.3
С 3 20 км 8/5 1000 м
[Cu med, cong Ac trans]
+29.2 +9.7 30 +29 +35 жарко 1008.8 1002.9
С 2 20 км 8/5 1000 м
[Cu med, cong Ac trans]
+28.1 +7.8 28 +28 +34 жарко 1008.6 1002.7
С 3
{7}
20 км 8/5 1050 м
[Cu med, cong Ac trans]
+29.5 +8.4 27 +29 +34 жарко 1007.8 1001.9
С 1 20 км 8/5 1000 м
[Cu med, cong Ac trans]
+28.6 +10.2 32 +29 +34 жарко 1007.6 1001.7
С 1 20 км 8/5 1000 м
[Cu med, cong Ac trans]
+28.6 +10.2 32 +29 +32 жарко 1007.2 1001.3
СВ 1
{7}
20 км 8/5 1050 м
[Cu med, cong Ac trans]
+28.3 +9.9 32 +29 +30 жарко 1007.0 1001.1
СЗ 1 20 км 6/4 1000 м
[Cu med, cong Ac trans]
+28.9 +9.9 31 +29 +30 жарко 1006.9 1001.0
С 1 20 км 8/5 1000 м
[Cu med, cong Ac trans]
+27.0 +7.8 30 +27 +27 жарко 1007.3 1001.4
штиль 0
{7}
20 км 6/4 1050 м
[Cu med, cong Ac trans]
+25.5 +7.9 33 +26 +26 жарко 1007.8 1001.9 +29.9
С 1
{3}
20 км ясно +21.0 +8.2 44 +24 +24 комфорт 1009.0 1003.1
З 1
{3}
20 км ясно +18.3 +9.4 56 +20 +20 1008.7 1002.8
С 2
{4}
20 км ясно +16.9 +7.8 55 +17 +17 1008.6 1002.7
СЗ 1
{4}
20 км ясно +21.1 +10.3 50 +23 +31 комфорт 1009.3 1003.4 +16.3
З 2 20 км 3/0
[Ac trans]
+23.1 +10.8 46 +25 +35 комфорт 1009.0 1003.1
СЗ 2 20 км 3/0
[Ac trans]
+25.2 +9.4 37 +26 +39 жарко 1009.1 1003.2
СЗ 2
{6}
20 км 4/4 1140 м
[Cu hum]
+24.6 +7.1 33 +25 +36 комфорт 1009.0 1003.1
СЗ 3 20 км 4/4 1000 м
[Cu med, cong]
+26.8 +7.6 30 +27 +37 жарко 1008.9 1003.0
СЗ 2 20 км 4/4 1000 м
[Cu med, cong]
+27.4 +4.3 23 +26 +38 жарко 1008.5 1002.6
С 2
{7}
20 км 4/4 1050 м
[Cu med, cong]
+28.0 +8.2 29 +28 +38 жарко 1008.3 1002.4
СЗ 2 20 км 4/4 1000 м
[Cu med, cong]
+28.9 +6.2 24 +28 +36 жарко 1007.6 1001.7
С 2 20 км 4/4 1000 м
[Cu med, cong]
+29.0 +6.3 24 +28 +33 жарко 1007.4 1001.5
С 1
{5}
20 км 4/4 1050 м
[Cu med, cong]
+28.6 +7.7 27 +28 +31 жарко 1007.3 1001.4
С 2 20 км 6/4 1000 м
[Cu med, cong Ac As]
+28.7 +6.6 25 +28 +29 жарко 1007.5 1001.6
С 1 20 км 6/4 1000 м
[Cu med, cong Ac As]
+26.5 +7.9 31 +26 +27 жарко 1008.2 1002.3
ЮВ 4
{7}
20 км 6/4 1050 м
[Cu med, cong Ac As]
+21.6 +10.7 50 +23 +23 комфорт 1009.5 1003.6 +29.3
ЮВ 2
{6}
20 км 6/4 1050 м
[Cu med, cong Ac trans]
+18.5 +8.1 51 +20 +20 1011.7 1005.8
штиль 0
{6}
20 км 5/3 1050 м
[Cu med, cong Ac As]
+17.1 +9.3 60 +17 +17 1012.2 1006.3
С 1
{3}
20 км 6/3 1140 м
[Cu hum Ac trans]
+13.5 +9.3 76 +15 +15 1012.5 1006.5
СВ 1
{3}
20 км 4/4 1200 м
[Cu hum]
+18.7 +10.6 59 +21 +26 комфорт 1013.4 1007.4 +13.1
ЮВ 1 20 км 4/4 1000 м
[Cu hum]
+20.3 +9.2 49 +23 +31 комфорт 1013.2 1007.2
Ю 1 20 км 6/4 1000 м
[Cu med, cong Ac As]
+22.6 +9.7 44 +24 +32 комфорт 1013.4 1007.4
Ю 2
{4}
20 км 6/4 1050 м
[Cu med, cong Ac As]
+23.2 +9.8 43 +25 +34 комфорт 1013.4 1007.4
Ю 2 20 км 5/4 1000 м
[Cu med, cong Ac As]
+24.5 +9.1 38 +25 +36 комфорт 1012.8 1006.8
Ю 2 20 км 5/4 1000 м
[Cu med, cong Ac As]
+25.4 +10.3 39 +26 +36 жарко 1012.7 1006.7
Ю 1
{5}
20 км 5/4 1050 м
[Cu med, cong Ac As]
+26.5 +10.9 38 +27 +38 жарко 1011.9 1006.0
Ю 1 20 км 8/5 1000 м
[Cu med, cong Ac As]
+27.1 +9.8 34 +28 +32 жарко 1011.4 1005.5
С 2 20 км гроза, ливневой дождь 9/6 600 м
[Cb cap Ac As]
+19.8 +15.9 78 +23 +24 комфорт 1015.0 1008.9
С 1
{8}
20 км в посл. час гроза 8/5 1050 м
[Cu med, cong Ac As]
+19.4 +17.0 86 +23 +24 комфорт 1012.9 1006.8
ЮВ 1 20 км 6/4 1000 м
[Cu med, cong Ac As]
+21.1 +15.2 69 +24 +25 комфорт 1012.4 1006.4
ЮВ 1 20 км 6/4 1000 м
[Cu med, cong Ac As]
+21.0 +15.1 69 +26 +26 душно 1012.6 1006.6
штиль 0
{8}
20 км {гроза} 6/5 1050 м
[Cu med, cong Ac As]
+20.7 +14.4 67 +23 +23 комфорт 1013.3 1007.3 +27.3 7
штиль 0
{3}
20 км ясно +18.1 +14.4 79 +18 +28 1017.4 1011.4 +14.2 6.7
штиль 0 20 км ясно +20.9 +12.9 60 +23 +38 комфорт 1017.4 1011.4
С 1 20 км ясно +22.6 +13.1 55 +26 +45 жарко 1017.6 1011.6
Ю 1
{2}
20 км ясно +24.2 +14.6 55 +27 +50 жарко 1018.0 1012.0
ЮЗ 1 20 км ясно +24.9 +14.4 52 +27 +52 опасность
солнечного
удара
1017.8 1011.8
Ю 1 20 км ясно +26.0 +14.5 49 +28 +52 опасность
солнечного
удара
1017.3 1011.3
Ю 1
{3}
20 км ясно +27.7 +14.3 44 +30 +51 опасность
солнечного
удара
1017.2 1011.2
Ю 1 20 км ясно +28.0 +15.3 46 +31 +46 душно 1016.7 1010.7
Ю 1 20 км ясно +28.1 +15.4 46 +31 +41 душно 1016.6 1010.6
Ю 1
{3}
20 км ясно +28.2 +15.5 46 +31 +37 душно 1016.5 1010.5
Ю 1 20 км ясно +27.4 +15.4 48 +30 +32 жарко 1015.9 1009.9
Ю 1 20 км ясно +27.0 +16.3 52 +30 +31 душно 1016.0 1010.0
штиль 0
{3}
20 км ясно +26.4 +16.7 55 +30 +30 душно 1016.4 1010.4 +28.3
штиль 0
{2}
20 км ясно +21.1 +12.3 57 +23 +32 комфорт 1017.8 1011.9 +16.4
штиль 0 20 км 4/0
[Ac trans]
+23.4 +14.4 57 +27 +39 душно 1018.1 1012.2
ЮЗ 1 20 км 5/3 1000 м
[Cu med, cong Ac trans]
+25.6 +17.1 59 +29 +41 душно 1018.1 1012.2
ЮЗ 2
{4}
20 км 6/4 1050 м
[Cu med, cong Ac As]
+27.3 +17.8 56 +32 +40 очень
душно
1018.1 1012.2
З 1 20 км 6/4 1000 м
[Cu med, cong Ac As]
+29.1 +18.0 51 +34 +44 очень
душно
1018.0 1012.1
ЮЗ 2 20 км 6/4 1000 м
[Cu med, cong Ac As]
+30.5 +17.6 46 +35 +44 очень
душно
1017.8 1011.9
ЮЗ 1
{4}
20 км 6/4 1050 м
[Cu med, cong Ac As]
+31.3 +18.7 47 +36 +45 очень
душно
1017.4 1011.5
Ю 1 20 км 8/5 1000 м
[Cu med, cong Ac As]
+31.1 +18.1 46 +36 +40 очень
душно
1016.7 1010.8
З 1 20 км 8/5 1000 м
[Cu med, cong Ac As]
+32.0 +18.6 45 +37 +40 очень
душно
1016.8 1010.9
З 1
{3}
20 км гроза без осадков 8/5 840 м
[Cb cap Ac cast]
+31.4 +17.3 43 +35 +37 очень
душно
1016.8 1010.9
СЗ 1 20 км гроза, ливневой дождь 9/6 600 м
[Cb cap Ac As]
+24.4 +18.4 69 +29 +29 душно 1018.2 1012.2
штиль 0 20 км гроза, ливневой дождь 8/6 1000 м
[Cb cap Ac As]
+23.3 +17.6 70 +29 +29 душно 1017.7 1011.7
С 1
{5}
20 км {гроза} 8/5 900 м
[Cu med, cong Ac As]
+22.5 +17.2 72 +27 +27 душно 1017.3 1011.3 +32.5 2
штиль 0
{2}
20 км ясно +22.9 +16.7 68 +28 +37 душно 1019.7 1013.7 +18.0 2.2
С 1 20 км 5/0
[Ci fib]
+25.9 +15.0 51 +29 +41 душно 1019.5 1013.6
СЗ 1 20 км 6/0
[Ci fib]
+26.7 +15.7 51 +30 +47 душно 1019.2 1013.3
С 1
{2}
20 км 5/0
[Ci fib]
+27.9 +15.2 46 +31 +51 опасность
солнечного
удара
1018.7 1012.8
С 1 20 км 6/0
[Ci fib]
+28.6 +12.4 37 +30 +50 жарко 1018.3 1012.4
штиль 0 20 км 6/0
[Ci fib]
+29.6 +11.5 33 +30 +53 опасность
солнечного
удара
1017.6 1011.7
СЗ 1
{3}
20 км 4/0
[Ci fib]
+30.7 +12.5 33 +32 +50 жарко 1017.0 1011.1
СЗ 1 20 км 4/0
[Ci fib]
+30.9 +14.4 37 +33 +47 душно 1016.1 1010.2
СЗ 1 20 км 6/0
[Ci fib]
+30.3 +13.0 35 +32 +41 жарко 1015.9 1010.0
СЗ 1
{3}
20 км 8/0
[Ac trans Ci fib]
+29.2 +14.1 40 +31 +35 жарко 1015.3 1009.4
ЮЗ 1 20 км 8/0
[Ac trans Ci fib]
+28.9 +16.5 47 +32 +34 душно 1014.7 1008.8
штиль 0 20 км 6/0
[Ac trans]
+27.5 +17.4 54 +32 +32 очень
душно
1014.2 1008.3
штиль 0
{3}
20 км 5/0
[Ac trans]
+26.2 +18.2 61 +31 +31 очень
душно
1014.0 1008.1 +31.0
Местоположение метеостанции Эдирне (Турция): широта 41.67 долгота 26.57 высота над уровнем моря 51 м.
В архиве по умолчанию представлена погода в Эдирне за последнюю неделю. Архивные данные за месяц целиком и за предыдущие месяцы, начиная с января 2011 года, Вы можете получить, выбрав интересующий диапазон дат из раскрывающегося списка и нажав кнопку "Найти!".
*Определитесь, кто Вы:
Внимание! Время в таблицах - всемирное. Для получения местного времени необходимо прибавить поправку, которая равна 2 ч.
Смотрите также архив погоды в соседних городах и на ближайших метеорологических станциях:
Партнеры нашего сайта:      
Пояснения к столбцам:
  • Ветер - указаны скорость ветра в м/с - средняя за 10 мин, порывы в срок и между сроками (в фигурных скобках) и направление, откуда дует ветер: С - северный,
  • СВ - северо-восточный, В - восточный, ЮВ - юго-восточный, Ю - южный, ЮЗ - юго-западный, З - западный, СЗ - северо-западный.
  • Видимость - горизонтальная дальность видимости в метрах или километрах. При видимости от 1 до 10 км при отсутствии осадков обычно наблюдается дымка, при ухудшении видимости до 1 км и менее - туман. В сухую погоду видимость может ухудшаться дымом, пылью или мглою.
  • Явления - указаны атмосферные явления, наблюдавшиеся в срок или в последний час перед сроком; фигурными скобками обозначены явления, наблюдавшиеся между сроками (за 1-3 часа до срока); квадратными скобками обозначены град или гололедные отложения с указанием их диаметра в мм.
  • Облачность - указаны через наклонную черту общая и нижняя облачность в баллах и высота нижней границы облаков в метрах; квадратными скобками обозначены формы облаков: Ci - перистые, Cs - перисто-слоистые, Cc - перисто-кучевые, Ac - высококучевые, As - высокослоистые, Sc - слоисто-кучевые, Ns - слоисто-дождевые, Cu - кучевые, Cb - кучево-дождевые. Подробнее классификацию облаков см. в Атласе облаков (PDF).
  • T - Температура воздуха - температура, измеренная на высоте 2 м над землей.
  • Td - Температура точки росы - температура, при понижении до которой содержащийся в воздухе водяной пар достигнет насыщения.
  • f - Относительная влажность воздуха - влажноcть воздуха, измеренная на высоте 2 м над землей.
  • Te - Эффективная температура - температура, которую ощущает одетый по сезону человек в тени. Характеристика душности погоды. При расчете учитывается влияние влажности воздуха и скорости ветра на теплоощущения человека.
  • Tes - Эффективная температура на солнце - температура, которую ощущает человек, с поправкой на солнечный нагрев. Характеристика знойности погоды. Зависит от высоты солнца над горизонтом, облачности и скорости ветра. Ночью, в пасмурную погоду, а также при ветре 12 м/с и более поправка равна нулю.
  • P - Атмосферное давление - приведенное к уровню моря атмосферное давление.
  • Po - Атмосферное давление - измеренное на уровне метеостанции атмосферное давление.
  • Tmin - Минимальная температура - минимум температуры воздуха на высоте 2 м над землей.
  • Tmax - Максимальная температура - максимум температуры воздуха на высоте 2 м над землей.
  • R - Количество осадков - Количество выпавших осадков за период времени, мм. При наведении курсора мыши на число - период времени, за который выпало указанное количество осадков.
  • R24 - Количество осадков - Количество выпавших осадков за 24 часа, мм.
  • S - Снежный покров - Высота снежного покрова, см. При наведении курсора мыши на число - состояние снежного покрова и степень покрытия местности в баллах.